sat.trackr.live / text

‹ back to catalog

STARLINK-11472 [DTC]

NORAD 62067 · 2024-217L

PAYLOAD ACTIVE UNKNOWN

§ Identity

Operator
Country
US
Launch date
2024-11-24
Launch site
AFWTR
Launch vehicle
Mass (kg)
RCS (m²)

Purposes: comms

External: N2YO · Heavens-Above · Gunter

§ Orbital elements

Epoch: 2026-09-21T12:06:47.458080Z

Period
91.73 min
Inclination
53.1577°
Eccentricity
0.0001090
Mean motion
15.69750267 rev/d
Perigee alt
358.9 km
Apogee alt
360.3 km
Semi-major
6,737.7 km
B*
8.7607e-4
RAAN
186.3142°
Arg perigee
87.3874°
Mean anomaly
272.7269°
Rev number
10,585

§ Raw data

STARLINK-11472 [DTC]1 62067U 24217L   26264.50471595  .00107104  00000+0  87607-3 0  99962 62067  53.1577 186.3142 0001090  87.3874 272.7269 15.69750267105855

JSON: /api/v1/satellites/62067 · /tle

For live sub-satellite position, see the globe view (requires WebGL).

§ Visibility from observer

Set your observer location to see the next 7 days of passes ≥ 10°. The values pass through the URL so the page stays shareable.

No JS? Fill the form by hand. The geolocation button needs JavaScript.